This demonstration page uses our WeatherBlox Daily Observations layout. Learn more.

Left ArrowRight Arrow

40.92945, -100.16068

Hourly Observations for January 23, 2021

Temp ( °F °C ) Dew Point ( °F °C ) Humidity (%) Winds ( mph kmh ) Pressure ( in mb ) Visibility ( mi km ) Precip ( " mm )
12:15 am 00:15 Clear 21 -6 17 -8.3 84 84 SE 9 15 30.27 1025 10 16.0934 0 0
12:35 am 00:35 Clear 21 -6 17 -8.5 83 83 SE 9 15 30.26 1025 10 16.0934 0 0
12:55 am 00:55 Partly Cloudy 21 -5.9 17 -8.5 82 82 SE 10 17 30.25 1024 10 16.0934 0 0
1:15 am 01:15 Mostly Cloudy 22 -5.7 17 -8.6 80 80 SE 10 17 30.25 1024 10 16.0934 0 0
1:35 am 01:35 Cloudy 22 -5.6 16 -8.7 79 79 SSE 10 17 30.23 1024 10 16.0934 0 0
1:55 am 01:55 Cloudy 22 -5.6 17 -8.6 80 80 SE 8 13 30.23 1024 10 16.0934 0 0
2:15 am 02:15 Cloudy 22 -5.5 17 -8.6 79 79 SSE 7 11 30.23 1024 10 16.0934 0 0
2:35 am 02:35 Mostly Cloudy 22 -5.5 16 -8.7 78 78 SSE 9 15 30.23 1024 10 16.0934 0 0
2:55 am 02:55 Clear 22 -5.5 15 -9.3 75 75 SSE 15 24 30.23 1024 10 16.0934 0 0
3:15 am 03:15 Mostly Cloudy 22 -5.4 15 -9.4 74 74 SSE 12 19 30.21 1023 10 16.0934 0 0
3:35 am 03:35 Cloudy 22 -5.5 15 -9.3 75 75 SSE 15 24 30.21 1023 10 16.0934 0 0
3:55 am 03:55 Cloudy 22 -5.5 15 -9.6 73 73 SSE 10 17 30.2 1023 10 16.0934 0 0
4:15 am 04:15 Cloudy 22 -5.5 15 -9.7 73 73 SSE 14 22 30.19 1022 10 16.0934 0 0
4:35 am 04:35 Cloudy 22 -5.5 14 -9.9 71 71 SSE 15 24 30.19 1022 10 16.0934 0 0
4:55 am 04:55 Cloudy 22 -5.5 14 -10 71 71 SSE 14 22 30.18 1022 10 16.0934 0 0
5:15 am 05:15 Partly Cloudy 21 -6 13 -10.3 72 72 SSE 15 24 30.18 1022 10 16.0934 0 0
5:35 am 05:35 Clear 21 -6.2 13 -10.3 73 73 SSE 14 22 30.17 1022 10 16.0934 0 0
5:55 am 05:55 Clear 20 -6.5 13 -10.4 74 74 SSE 10 17 30.16 1021 10 16.0934 0 0
6:15 am 06:15 Partly Cloudy 20 -6.7 13 -10.3 76 76 SSE 12 19 30.16 1021 10 16.0934 0 0
6:35 am 06:35 Partly Cloudy 20 -6.8 13 -10.3 76 76 SE 10 17 30.16 1021 10 16.0934 0 0
6:55 am 06:55 Cloudy 20 -6.6 13 -10.3 75 75 SE 10 17 30.14 1021 10 16.0934 0 0
7:15 am 07:15 Cloudy 20 -6.5 13 -10.3 75 75 SE 10 17 30.14 1021 10 16.0934 0 0
7:35 am 07:35 Cloudy 21 -6.2 14 -10.2 74 74 SE 10 17 30.14 1021 10 16.0934 0 0
7:55 am 07:55 Cloudy 21 -6.1 13 -10.5 71 71 SE 9 15 30.14 1021 10 16.0934 0 0
8:15 am 08:15 Cloudy 21 -6 13 -10.5 71 71 SE 8 13 30.14 1021 10 16.0934 0 0
8:35 am 08:35 Cloudy 22 -5.8 14 -10.2 71 71 SE 9 15 30.13 1020 10 16.0934 0 0
8:55 am 08:55 Cloudy 23 -5 13 -10.5 66 66 SSE 14 22 30.12 1020 10 16.0934 0 0
9:15 am 09:15 Cloudy 23 -5 13 -10.7 65 65 SE 10 17 30.12 1020 10 16.0934 0 0
9:35 am 09:35 Cloudy 24 -4.7 13 -10.6 64 64 SE 10 17 30.1 1019 10 16.0934 0 0
9:55 am 09:55 Cloudy 24 -4.6 13 -10.6 63 63 SE 12 19 30.1 1019 10 16.0934 0 0
10:15 am 10:15 Cloudy 24 -4.5 13 -10.3 64 64 SE 10 17 30.09 1019 10 16.0934 0 0
10:35 am 10:35 Cloudy 24 -4.3 13 -10.3 63 63 SE 13 20 30.08 1019 10 16.0934 0 0
10:55 am 10:55 Cloudy 25 -3.9 14 -10 63 63 SE 12 19 30.07 1018 10 16.0934 0 0
11:15 am 11:15 Cloudy 26 -3.3 14 -10 60 60 SE 14 22 30.05 1018 10 16.0934 0 0
11:35 am 11:35 Cloudy 27 -3 14 -10 59 59 SSE 14 22 30.04 1017 10 16.0934 0 0
11:55 am 11:55 Cloudy 27 -3 15 -9.4 62 62 SE 12 19 30.02 1016 10 16.0934 0 0
12:15 pm 12:15 Cloudy 26 -3.5 17 -8.1 71 71 SSE 14 22 30.02 1017 7 11.26538 0 0
12:35 pm 12:35 Cloudy with Haze 26 -3.6 20 -6.9 78 78 SSE 14 22 30 1016 5 8.0467 0 0
12:55 pm 12:55 Cloudy with Mist and Fog 25 -3.9 22 -5.8 87 87 SSE 13 20 29.99 1015 3 4.82802 0 0
1:15 pm 13:15 Cloudy with Mist and Fog 25 -4.1 22 -5.3 91 91 SE 10 17 29.97 1015 2 3.21868 0 0
1:35 pm 13:35 Cloudy with Mist and Fog 25 -4 23 -5.1 92 92 SSE 13 20 29.97 1015 2.5 4.02335 0 0
1:55 pm 13:55 Cloudy 25 -4 23 -5.2 91 91 SSE 12 19 29.97 1015 7 11.26538 0 0
2:15 pm 14:15 Cloudy 25 -3.9 22 -5.4 89 89 SSE 9 15 29.96 1014 10 16.0934 0 0
2:35 pm 14:35 Cloudy 25 -3.8 22 -5.4 89 89 S 9 15 29.95 1014 7 11.26538 0 0
2:55 pm 14:55 Cloudy with Mist and Fog 25 -4 22 -5.3 91 91 SSE 8 13 29.96 1014 4 6.43736 0 0
3:15 pm 15:15 Cloudy with Mist and Fog 25 -4 23 -5.1 92 92 S 7 11 29.96 1014 5 8.0467 0 0
3:35 pm 15:35 Cloudy with Mist and Fog 25 -3.9 22 -5.3 90 90 SSW 5 7 29.97 1015 5 8.0467 0 0
3:55 pm 15:55 Cloudy with Mist and Fog 25 -3.8 23 -5.1 91 91 S 5 7 29.96 1015 5 8.0467 0 0
4:15 pm 16:15 Cloudy with Mist and Fog 25 -3.8 23 -5 91 91 S 5 7 29.96 1015 5 8.0467 0 0
4:35 pm 16:35 Cloudy 25 -3.8 23 -5 91 91 Calm 29.96 1015 7 11.26538 0 0
4:55 pm 16:55 Cloudy 25 -3.9 23 -5.2 91 91 Calm 29.97 1015 7 11.26538 0 0
5:15 pm 17:15 Cloudy 25 -3.8 22 -5.3 89 89 Calm 29.97 1015 10 16.0934 0 0
5:35 pm 17:35 Cloudy 25 -3.8 23 -5.2 90 90 Calm 29.98 1015 7 11.26538 0 0
5:55 pm 17:55 Cloudy 25 -3.8 23 -5.2 90 90 Calm 29.99 1016 10 16.0934 0 0
6:15 pm 18:15 Cloudy 25 -3.8 23 -5.2 90 90 Calm 29.99 1016 10 16.0934 0 0
6:35 pm 18:35 Cloudy 25 -3.8 23 -5 91 91 Calm 29.99 1016 10 16.0934 0 0
6:55 pm 18:55 Cloudy 25 -3.7 23 -5 91 91 Calm 30 1016 10 16.0934 0 0
7:15 pm 19:15 Cloudy 25 -3.7 23 -5 91 91 Calm 30.01 1016 10 16.0934 0 0
7:35 pm 19:35 Cloudy 26 -3.6 23 -5 90 90 Calm 30.02 1017 10 16.0934 0 0
7:55 pm 19:55 Cloudy 26 -3.5 23 -4.9 90 90 NW 3 6 30.03 1017 10 16.0934 0 0
8:15 pm 20:15 Cloudy 26 -3.5 23 -5 89 89 Calm 30.03 1017 10 16.0934 0 0
8:35 pm 20:35 Cloudy 26 -3.5 23 -5 89 89 WNW 3 6 30.03 1017 10 16.0934 0 0
8:55 pm 20:55 Cloudy 26 -3.3 23 -4.8 90 90 W 3 6 30.04 1017 10 16.0934 0 0
9:15 pm 21:15 Cloudy 26 -3.5 23 -5 89 89 W 5 7 30.03 1017 10 16.0934 0 0
9:35 pm 21:35 Cloudy 26 -3.3 23 -5 88 88 W 8 13 30.05 1018 10 16.0934 0 0
9:55 pm 21:55 Cloudy 26 -3.2 23 -5 88 88 W 8 13 30.05 1018 10 16.0934 0 0
10:15 pm 22:15 Cloudy 26 -3.1 23 -5 87 87 W 6 9 30.06 1018 10 16.0934 0 0
10:35 pm 22:35 Cloudy 27 -3 23 -5 86 86 WNW 6 9 30.05 1017 10 16.0934 0 0
10:55 pm 22:55 Mostly Cloudy 26 -3.2 23 -5 88 88 WNW 5 7 30.05 1018 10 16.0934 0 0
11:15 pm 23:15 Clear 26 -3.5 23 -5.1 89 89 NW 6 9 30.05 1018 10 16.0934 0 0
11:35 pm 23:35 Partly Cloudy 26 -3.5 23 -5 89 89 NW 5 7 30.05 1018 10 16.0934 0 0
11:55 pm 23:55 Cloudy 26 -3.1 23 -5 87 87 W 6 9 30.07 1018 10 16.0934 0 0

Powered by AerisWeather